Regional Weather Roundup
Issued by NWS

Home | Current Version | Previous Version | Text Only | Print | Product List | Glossary On
Versions: 1 2 3 4 5 6 7 8 9 10 11 12 13 14 15 16 17 18 19 20 21 22 23 24 25 26 27 28 29 30 31 32 33 34 35 36 37 38 39 40 41 42 43 44 45 46 47 48 49 50
000
ASUS45 KABQ 281010
RWRNM
NEW MEXICO REGIONAL WEATHER ROUNDUP
NATIONAL WEATHER SERVICE ALBUQUERQUE NM
400 AM MDT FRI APR 28 2017

NOTE: "FAIR" MEANS FEW OR NO CLOUDS BELOW 12,000 FEET AGL WITH NO
       SIGNIFICANT WEATHER OR OBSTRUCTIONS TO VISION.

      THIS PRODUCT IS RELEASED AS TWO VERSIONS.  ONE VERSION NEAR
      THE TOP OF THE HOUR CONTAINING PRELIMINARY DATA FROM ALBUQUERQUE
      AND OTHER STATIONS.  A FINAL VERSION WITH ADDITIONAL DATA IS
      ISSUED ABOUT 10 MINUTES AFTER THE HOUR.

NMZ501-503-504-510>518-281100-
NORTHWEST PLATEAU/NORTHCENTRAL MOUNTAINS

CITY           SKY/WX    TMP DP  RH WIND       PRES   REMARKS
FARMINGTON     CLOUDY    43  22  43 NW12      29.77S
LOS ALAMOS     FAIR      37  21  53 NE8       29.78F WCI  30
SANTA FE       FAIR      38  24  57 N9        29.75R WCI  31
TAOS             N/A     36  18  48 W12       29.79R WCI  27
ANGEL FIRE     LGT SNOW  28  27  94 CALM      29.80R VSB 3/4

$$
NMZ402-403-502-505>509-281100-
WESTCENTRAL MOUNTAINS/SOUTHWEST MOUNTAINS

CITY           SKY/WX    TMP DP  RH WIND       PRES   REMARKS
GALLUP         CLOUDY    46  15  28 NE13      29.77R
GRANTS         CLOUDY    42  22  44 W9        29.78F
SILVER CITY    FAIR      56  32  39 W10       29.77S

$$
NMZ407-409-411-412-281100-
SOUTHERN DESERTS

CITY           SKY/WX    TMP DP  RH WIND       PRES   REMARKS
DEMING         FAIR      62  34  35 W12       29.73F
LAS CRUCES     FAIR      64  33  30 CALM      29.75R
HOLLOMAN AFB   FAIR      62  30  30 CALM      29.71S
ALAMOGORDO     FAIR      63  30  29 SW10      29.69F
T OR C         FAIR      60  30  32 E6        29.69S

$$
NMZ519>523-281100-
CENTRAL VALLEYS/CENTRAL HIGHLANDS

CITY           SKY/WX    TMP DP  RH WIND       PRES   REMARKS
ALBUQUERQUE    FAIR      47  27  45 N8        29.76R
MORIARTY ARPT  FAIR      38  28  65 NW9       29.77S WCI  32
CLINES CORNERS FAIR      30  21  69 W9        29.77S WCI  22
BELEN          FAIR      42  27  54 N6        29.76R
SOCORRO        FAIR      52  29  41 N8        29.74R

$$
NMZ524>526-539-540-281100-
SOUTHCENTRAL MOUNTAINS

CITY           SKY/WX    TMP DP  RH WIND       PRES   REMARKS
RUIDOSO        FAIR      54  23  30 W16G24    29.79F

$$
NMZ527>531-281100-
NORTHEAST HIGHLANDS/NORTHEAST PLAINS

CITY           SKY/WX    TMP DP  RH WIND       PRES   REMARKS
LAS VEGAS      FAIR      35  20  54 N7        29.73R WCI  29
RATON          FAIR      36  15  42 SW14      29.68R WCI  27
CLAYTON        FAIR      41  37  86 S6        29.68R

$$
NMZ532>537-281100-
EASTCENTRAL PLAINS

CITY           SKY/WX    TMP DP  RH WIND       PRES   REMARKS
SANTA ROSA     FAIR      46  28  48 W3        29.70R
TUCUMCARI      FAIR      47  35  63 NE6       29.66S
CANNON AFB     FAIR      54  25  31 NW14      29.68R
CLOVIS AIRPORT FAIR      52  27  37 N8        29.68R

$$
NMZ028-029-538-281100-
SOUTHEAST PLAINS

CITY           SKY/WX    TMP DP  RH WIND       PRES   REMARKS
ROSWELL        FAIR      57  30  35 N8          N/A
ARTESIA        FAIR      59  32  36 NW5       29.67R
CARLSBAD       FAIR      66  34  30 NW14      29.63R
HOBBS          FAIR      61  37  41 N10       29.67R


$$



USA.gov is the U.S. government's official web portal to all federal, state and local government web resources and services.